Weather in Wichita

United States     37°40′10″N   97°20′36″W
temp.,
°C
wind,
m/s
gust,
m/s
humid.,
%
clouds,
%
prec.,
mm/h
press.,
hPa
HPBL,
m
6 may, thu
thu601:00+12wsw38764 0.1 1022163
04:00+11w411892 0.1 1022228
07:00+10n513870 0.1 1025386
10:00+14n6105920 0.0 1026661
13:00+18n69405 0.0 10261188
16:00+19n45360 0.0 10241746
19:00+18n34430 0.0 10231021
22:00+13ese36560 0.0 1023129
7 may, fri
fri701:00+11se38621 0.0 1022189
04:00+11s3975100 0.1 1022291
07:00+11s41084100 0.8 1022349
10:00+14s6117047 0.4 1020529
13:00+21s8115691 0.4 10161405
16:00+19s6107197 0.0 1014906
19:00+20sse6127128 0.0 1011933
22:00+16sse51490100 0.6 1011546
8 may, sat
sat801:00+16sse51492100 0.6 1010477
04:00+15se4119685 0.0 1009340
07:00+15sse4119454 0.0 1008354
10:00+21s69635 0.0 1006626
13:00+25s7951100 0.1 10041182
16:00+27s91250100 0.0 10011663
19:00+24sse91570100 0.0 9991199
22:00+21sse102084100 0.0 998946
9 may, sun
sun901:00+22s1120768 0.0 996943
04:00+22ssw1017550 0.0 996786
07:00+16nw81579100 0.0 1002763
10:00+16nw8116984 0.0 1005862
13:00+20nnw810500 0.0 10061174
16:00+22nnw78440 0.0 10071557
19:00+17n79555 0.0 10101196
22:00+10nne713690 0.0 1015640
10 may, mon
mon1001:00+7nne7147799 0.0 1017598
04:00+6nne8148099 0.0 1017637
07:00+6ne61281100 0.1 1019707
10:00+8ne6970100 0.0 10211013
13:00+9ne7964100 0.1 10221094
16:00+11ne796082 0.0 10211288
19:00+11ene696376 0.0 10221316
22:00+8ne4108218 0.0 1025548